Regional Weather Roundup
Issued by NWS Kansas City/Pleasant Hill, MO

Home | Current Version | Previous Version | Text Only | Print | Product List | Glossary On
Versions: 1 2 3 4 5 6 7 8 9 10 11 12 13 14 15 16 17 18 19 20 21 22 23 24 25 26 27
000
ASUS43 KEAX 210510
RWREAX

WEATHER ROUNDUP FOR EASTERN KANSAS AND NORTHWEST MISSOURI
NATIONAL WEATHER SERVICE KANSAS CITY/PLEASANT HILL MO
1200 AM CDT SAT APR 21 2018

KSZ040-057-103>105-MOZ028-029-037-043-210600-
...KANSAS CITY METROPOLITAN AREA...

CITY           SKY/WX    TMP DP  RH WIND       PRES   REMARKS
K.C. INTL      CLOUDY    53  24  32 E13       30.26R
K.C. DOWNTOWN  CLOUDY    57  23  26 NE8       30.25R
LEES SUMMIT    MOCLDY    55  22  27 E10       30.25R
OLATHE - IXD   CLOUDY    56  23  27 E8        30.27R
OLATHE - OJC   CLOUDY    54  22  28 E12       30.25R
LAWRENCE       CLOUDY    54  28  36 NE8       30.25R

$$

MOZ001>008-011>017-020>025-030>033-038>040-044>046-053-054-210600-
...NORTHERN AND CENTRAL MISSOURI...

CITY           SKY/WX    TMP DP  RH WIND       PRES   REMARKS
ST. JOSEPH     MOCLDY    55  22  27 E10       30.29R
MOSBY          CLOUDY    54  21  28 E8        30.27R
WARRENSBURG    MOCLDY    52  23  32 NE10      30.25R
WHITEMAN AFB   CLOUDY    52  23  32 E9        30.21R
CLINTON        CLOUDY    55  23  28 E12       30.23S
SEDALIA        CLOUDY    55  25  31 E13       30.26S
WARSAW         NOT AVBL
CHILLICOTHE      N/A     53  21  28 E7        30.31R
KIRKSVILLE     PTCLDY    48  24  39 E8        30.33F

$$

MOZ041-047>049-056>058-063>065-088>090-097-210600-
...EASTERN AND SOUTHERN MISSOURI...

CITY           SKY/WX    TMP DP  RH WIND       PRES   REMARKS
ST. LOUIS INTL PTCLDY    49  26  41 E5        30.35F
SPIRIT OF STL  MOCLDY    42  32  67 CALM      30.33F
COLUMBIA       CLOUDY    50  23  34 E9        30.29F
JEFFERSON CITY CLOUDY    54  23  30 E9        30.29F
OSAGE BEACH    PTCLDY    54  25  32 E12       30.28S
SPRINGFIELD    CLOUDY    55  19  24 SE14G22   30.21S
BRANSON        MOCLDY    50  23  34 E12       30.22F
JOPLIN         CLOUDY    57  22  25 E7        30.20R
WEST PLAINS    CLOUDY    52  24  33 E8        30.27S

$$

IAZ060-094-KSZ022-034>040-054-083-096-NEZ052-066-093-210600-
...KANSAS...SOUTHEAST NEBRASKA AND IOWA...

CITY           SKY/WX    TMP DP  RH WIND       PRES   REMARKS
TOPEKA         CLOUDY    55  28  35 NE6       30.26R
MANHATTAN      CLOUDY    56  27  32 NE12      30.23F
EMPORIA        CLOUDY    54  31  41 NE9       30.20F
CHANUTE        MOCLDY    58  28  32 E7        30.20R
WICHITA        LGT RAIN  56  37  49 E8        30.18R
OMAHA          CLOUDY    54  28  36 E14       30.32R
LINCOLN        CLOUDY    53  27  36 E12       30.29S
FALLS CITY     CLOUDY    50  26  39 E9        30.27S
LAMONI         CLOUDY    51  21  30 E6        30.31F
DES MOINES     CLOUDY    52  25  35 E9        30.35F

$$





USA.gov is the U.S. government's official web portal to all federal, state and local government web resources and services.